This is the latest recevied weather packets stored in our database for station/object MB7UUE. If no packets are shown the sender has not sent any weather packets the latest 10 day(s).
| Time | Temp. | Humidity | Pressure | Rain* | Wind** | Luminosity | Snow |
|---|---|---|---|---|---|---|---|
| 1777960108 | 10.56° C | 83% | 1013.4 hPa | 0 mm | - | - | - |
| 1777958969 | 10.56° C | 83% | 1013.4 hPa | 0 mm | - | - | - |
| 1777957828 | 10° C | 82% | 1013.5 hPa | 0 mm | - | - | - |
| 1777956688 | 10° C | 82% | 1013.4 hPa | 0 mm | - | - | - |
| 1777955548 | 10° C | 81% | 1013.4 hPa | 0 mm | - | - | - |
| 1777954409 | 10° C | 81% | 1013.4 hPa | 0 mm | - | - | - |
| 1777953269 | 10.56° C | 81% | 1013.4 hPa | 0 mm | - | - | - |
| 1777952128 | 10.56° C | 81% | 1013.4 hPa | 0 mm | - | - | - |
| 1777950987 | 11.11° C | 81% | 1013.6 hPa | 0 mm | - | - | - |
| 1777949848 | 11.11° C | 81% | 1013.6 hPa | 0 mm | - | - | - |
| 1777948709 | 11.67° C | 82% | 1013.7 hPa | 0 mm | - | - | - |
| 1777947568 | 11.67° C | 82% | 1013.5 hPa | 0 mm | - | - | - |
| 1777946428 | 11.67° C | 82% | 1013.5 hPa | 0 mm | - | - | - |
| 1777945289 | 11.67° C | 82% | 1013.9 hPa | 0 mm | - | - | - |
| 1777944148 | 11.67° C | 82% | 1014 hPa | 0 mm | - | - | - |
| 1777943009 | 12.22° C | 82% | 1013.9 hPa | 0 mm | - | - | - |
| 1777941868 | 12.22° C | 82% | 1014.1 hPa | 0 mm | - | - | - |
| 1777940728 | 12.22° C | 82% | 1014.2 hPa | 0 mm | - | - | - |
| 1777939588 | 12.22° C | 82% | 1014.4 hPa | 0 mm | - | - | - |
| 1777938446 | 12.22° C | 82% | 1014.5 hPa | 0 mm | - | - | - |
| 1777937307 | 12.22° C | 82% | 1014.5 hPa | 0 mm | - | - | - |
| 1777936166 | 12.78° C | 82% | 1014.6 hPa | 0 mm | - | - | - |
| 1777935026 | 12.78° C | 82% | 1014.5 hPa | 0 mm | - | - | - |
| 1777933887 | 12.78° C | 82% | 1014.5 hPa | 0 mm | - | - | - |
| 1777932745 | 13.33° C | 81% | 1014.7 hPa | 0 mm | - | - | - |
* Rain latest hour (hover to see other rain measurements)
** Current wind speed in m/s (hover to see current wind gust speed)